Jonesboro, AR

2:48 PM CDT on March 27, 2017 (GMT -0500)
Jonesboro Municipal

Weather History for KJBR - August, 2013

Change the Weather History Date:

Tuesday, August 27, 2013

  Actual Average Record
Temperature  
Mean Temperature 82 °F 78 °F  
Max Temperature 92 °F 89 °F 105 °F (1943)
Min Temperature 71 °F 68 °F 53 °F (1917)
Degree Days  
Heating Degree Days 0 0  
Month to date heating degree days 0 0  
Since 1 June heating degree days 0 1  
Since 1 July heating degree days 0 0  
Cooling Degree Days 17 13  
Month to date cooling degree days 381 409  
Year to date cooling degree days 1515 1496  
Since 1 June cooling degree days 1285 1283  
Growing Degree Days 32 (Base 50)    
Moisture  
Dew Point 68 °F    
Average Humidity 66    
Maximum Humidity 87    
Minimum Humidity 44    
Precipitation  
Precipitation 0.00 in 0.09 in 1.76 in (1900)
Month to date precipitation 3.72 2.20  
Year to date precipitation 37.45 30.77  
Snow  
Snow 0.00 in 0.00 in - ()
Month to date snowfall 0.0 0.0  
Since 1 June snowfall 0.0 0.0  
Since 1 July snowfall 0.0 0.0  
Snow Depth 0.00 in    
Sea Level Pressure  
Sea Level Pressure 30.09 in    
Wind  
Wind Speed 5 mph (SSW)    
Max Wind Speed 13 mph    
Max Gust Speed 16 mph    
Visibility 10 miles    
Events      
T = Trace of Precipitation, MM = Missing Value Source: NWS Daily Summary

Daily Weather History Graph

Daily Weather History Graph

Search for Another Location

Airport or City:

Trip Planner

Search our weather history database for the weather conditions in past years. The results will help you decide how hot, cold, wet, or windy it might be!

Date:

Astronomy

Aug. 27, 2013 Rise Set
Actual Time 6:30 AM CDT 7:36 PM CDT
Civil Twilight 6:04 AM CDT 8:02 PM CDT
Nautical Twilight 5:33 AM CDT 8:34 PM CDT
Astronomical Twilight 5:00 AM CDT 9:06 PM CDT
Moon 11:44 PM CDT 1:14 PM CDT
Length of Visible Light 13h 58m
Length of Day
13h 05m
Waning Gibbous, 57% of the Moon is Illuminated
Aug 27
Waning Gibbous
Aug 28
Last Quarter
Sep 5
New
Sep 12
First Quarter
Sep 19
Full

Hourly Weather History & Observations

Time (CDT) Temp. Heat Index Dew Point Humidity Pressure Visibility Wind Dir Wind Speed Gust Speed Precip Events Conditions
12:53 AM 73.0 °F - 69.1 °F 87% 30.12 in 10.0 mi Calm Calm - N/A   Clear
1:53 AM 73.0 °F - 69.1 °F 87% 30.11 in 10.0 mi Calm Calm - N/A   Clear
2:53 AM 73.9 °F - 69.1 °F 85% 30.11 in 10.0 mi Calm Calm - N/A   Clear
3:53 AM 75.9 °F - 68.0 °F 76% 30.11 in 10.0 mi SW 8.1 mph - N/A   Clear
4:53 AM 73.9 °F - 66.9 °F 79% 30.11 in 10.0 mi SSW 3.5 mph - N/A   Clear
5:53 AM 73.0 °F - 66.0 °F 79% 30.12 in 10.0 mi SSW 3.5 mph - N/A   Clear
6:53 AM 72.0 °F - 66.0 °F 81% 30.13 in 10.0 mi Calm Calm - N/A   Clear
7:53 AM 75.9 °F - 66.0 °F 71% 30.14 in 10.0 mi SW 8.1 mph - N/A   Clear
8:53 AM 80.1 °F 82.1 °F 66.0 °F 62% 30.14 in 10.0 mi SW 10.4 mph - N/A   Clear
9:53 AM 82.9 °F 85.0 °F 66.0 °F 56% 30.14 in 10.0 mi WSW 11.5 mph - N/A   Clear
10:53 AM 86.0 °F 89.4 °F 68.0 °F 55% 30.14 in 10.0 mi SW 11.5 mph - N/A   Clear
11:53 AM 88.0 °F 91.4 °F 68.0 °F 51% 30.12 in 10.0 mi SW 6.9 mph - N/A   Clear
12:53 PM 91.0 °F 95.2 °F 68.0 °F 47% 30.10 in 10.0 mi SW 9.2 mph - N/A   Clear
1:53 PM 91.0 °F 95.2 °F 68.0 °F 47% 30.08 in 10.0 mi Variable 5.8 mph - N/A   Partly Cloudy
2:53 PM 91.9 °F 95.4 °F 66.9 °F 44% 30.06 in 10.0 mi Variable 5.8 mph - N/A   Clear
3:53 PM 91.9 °F 95.4 °F 66.9 °F 44% 30.05 in 10.0 mi SSW 5.8 mph - N/A   Partly Cloudy
4:53 PM 90.0 °F 93.6 °F 68.0 °F 48% 30.04 in 10.0 mi SSW 8.1 mph - N/A   Partly Cloudy
5:53 PM 91.0 °F 95.2 °F 68.0 °F 47% 30.04 in 10.0 mi South 6.9 mph - N/A   Clear
6:53 PM 88.0 °F 91.4 °F 68.0 °F 51% 30.03 in 10.0 mi South 4.6 mph - N/A   Clear
7:38 PM 84.2 °F 87.3 °F 68.0 °F 58% 30.04 in 10.0 mi South 3.5 mph - N/A   Partly Cloudy
7:53 PM 84.0 °F 87.0 °F 68.0 °F 58% 30.03 in 10.0 mi South 3.5 mph - N/A   Partly Cloudy
8:53 PM 75.9 °F - 70.0 °F 82% 30.04 in 10.0 mi Calm Calm - N/A   Clear
9:53 PM 75.0 °F - 70.0 °F 84% 30.06 in 10.0 mi Calm Calm - N/A   Clear
10:53 PM 73.9 °F - 69.1 °F 85% 30.06 in 10.0 mi Calm Calm - N/A   Clear
11:53 PM 75.0 °F - 70.0 °F 84% 30.05 in 10.0 mi Calm Calm - N/A   Clear